Terminal Aerodrome Forecast
Issued by NWS

Home | Current Version | Previous Version | Text Only | Print | Product List | Glossary On
Versions: 1 2 3 4 5 6 7 8 9 10 11 12 13 14 15 16 17 18 19 20 21 22 23 24 25 26 27 28 29 30 31 32 33 34 35 36 37 38
274
FTUS45 KSLC 070522
TAFPVU
TAF
KPVU 070522Z 0706/0806 00000KT P6SM BKN200
     FM071000 00000KT 4SM BR SCT002 SCT200
     FM071800 VRB03KT 6SM HZ SCT200
     FM080300 00000KT 4SM BR FEW200
      AMD LTD TO CLD VIS AND WIND=

USA.gov is the U.S. government's official web portal to all federal, state and local government web resources and services.